Home > Weather > Oxnard > Past weeks

Flag for U.S.A. Weather for the Past 2 Weeks in Oxnard, California, U.S.A.

Now
75 °F

Sunny.


Feels Like: 75 °F
Forecast: 51 / 70 °F
Wind: 23 mph from East

Location: Oxnard Airport

Current Time: Feb 5, 2016 at 3:09:54 PM

Latest Report: Feb 5, 2016 at 1:51 PM


Visibility: 10 mi

Pressure: 30.27 "Hg

Humidity: 13%

Dew point: 21 °F

Location of OxnardLocation

Historic Weather in Oxnard — Graph

°F

Oxnard Temperature Yesterday

Maximum temperature yesterday: 68 °F (at 11:51 AM)
Minimum temperature yesterday: 46 °F (at 6:51 AM)
Average temperature yesterday: 55 °F

High & Low Weather Summary for the Past Weeks

 TemperatureHumidityPressure
High75 °F (Feb 5, 1:51 PM)93% (Jan 22, 2:51 AM)30.38 "Hg (Jan 22, 2:51 AM)
Low41 °F (Feb 1, 11:51 PM)13% (Feb 5, 1:51 PM)29.57 "Hg (Jan 31, 1:51 PM)
Average57 °F58%30.11 "Hg
* Reported Jan 21 1:51 PM — Feb 5 1:51 PM, Oxnard, Weather by CustomWeather, © 2016

Note: Actual official high and low records may vary slightly from our data, if they occured in-between our weather recording intervals... More about our weather records

Advertising

Oxnard Weather History for the Previous 24 Hours

 ConditionsComfort  
Time TempWeatherWind HumidityBarometerVisibility
1:51 PM
Fri, Feb 5
75 °FSunny.23 mph13%30.27 "Hg10 mi
12:51 PM74 °FSunny.20 mph14%30.29 "Hg10 mi
11:51 AM74 °FSunny.18 mph15%30.32 "Hg10 mi
10:51 AM72 °FSunny.17 mph17%30.33 "Hg10 mi
9:51 AM69 °FSunny.18 mph18%30.33 "Hg10 mi
8:51 AM66 °FSunny.15 mph21%30.34 "Hg10 mi
7:51 AM58 °FSunny.No wind32%30.33 "Hg10 mi
6:51 AM56 °FSunny.6 mph30%30.32 "Hg10 mi
5:51 AM58 °FClear.7 mph28%30.30 "Hg10 mi
4:51 AM61 °FClear.16 mph23%30.27 "Hg10 mi
3:51 AM62 °FClear.16 mph22%30.27 "Hg10 mi
2:51 AM62 °FClear.16 mph22%30.27 "Hg10 mi
1:51 AM62 °FClear.14 mph23%30.27 "Hg10 mi
12:51 AM61 °FClear.14 mph25%30.27 "Hg10 mi
11:51 PM
Thu, Feb 4
61 °FClear.14 mph25%30.27 "Hg10 mi
10:51 PM49 °FClear.No wind74%30.28 "Hg6 mi
9:51 PM52 °FClear.3 mph69%30.28 "Hg5 mi
8:51 PM52 °FClear.No wind72%30.26 "Hg8 mi
7:51 PM53 °FClear.5 mph77%30.26 "Hg10 mi
6:51 PM55 °FClear.9 mph72%30.25 "Hg10 mi
5:51 PM56 °FClear.12 mph75%30.25 "Hg10 mi
4:51 PM59 °FSunny.16 mph54%30.24 "Hg10 mi
3:51 PM63 °FSunny.14 mph41%30.24 "Hg10 mi
Weather by CustomWeather, © 2016

See weather overviewHow to use our weather pages